Location: Newark
(40.9833°N, 0.0333°W)
Time: 13:55:09
(UTC+00:00)

Tiros 1 - All Passes

Search period start: 30 October 2020 00:00
Search period end: 09 November 2020 00:00
Orbit: 630 x 663 km, 48.4° (Epoch: 29 October)

Date Brightness Start Highest point End Pass type
(mag) Time Alt. Az. Time Alt. Az. Time Alt. Az.
30 Oct - 01:35:07 10° SSW 01:39:04 28° SE 01:43:01 10° ENE night (unlit)
30 Oct - 03:16:22 10° WSW 03:20:59 68° NNW 03:25:36 10° ENE visible
30 Oct - 04:59:30 10° WNW 05:03:43 33° N 05:07:55 10° ENE visible
30 Oct - 06:42:18 10° NW 06:46:40 40° NNE 06:51:02 10° E daylight
30 Oct - 08:24:29 10° WNW 08:29:06 72° SSW 08:33:43 10° SE daylight
30 Oct - 10:08:15 10° W 10:10:40 14° SW 10:13:06 10° SSW daylight
31 Oct - 00:22:02 10° SSE 00:23:24 11° SE 00:24:45 10° ESE night (unlit)
31 Oct - 02:00:17 10° SW 02:04:51 60° SE 02:09:25 10° ENE visible
31 Oct - 03:42:46 10° W 03:47:12 43° NNW 03:51:37 10° NE visible
31 Oct - 05:25:57 10° WNW 05:30:07 32° N 05:34:18 10° ENE visible
31 Oct - 07:08:20 10° WNW 07:12:55 60° NNE 07:17:29 10° ESE daylight
31 Oct - 08:50:46 10° WNW 08:54:57 34° SW 08:59:08 10° SSE daylight
01 Nov - 00:45:07 10° SSW 00:48:58 26° SE 00:52:49 10° E night (unlit)
01 Nov - 02:26:13 10° WSW 02:30:51 73° NNW 02:35:29 10° ENE visible
01 Nov - 04:09:18 10° WNW 04:13:32 34° N 04:17:46 10° ENE visible
01 Nov - 05:52:10 10° NW 05:56:30 39° NNE 06:00:51 10° E visible
01 Nov - 07:34:22 10° WNW 07:38:59 77° SSW 07:43:36 10° SE daylight
01 Nov - 09:17:53 10° W 09:20:35 15° SW 09:23:18 10° SSW daylight
01 Nov - 23:33:06 10° SE 23:33:19 10° SE 23:33:32 10° SE night (unlit)
02 Nov - 01:10:11 10° SW 01:14:44 55° SE 01:19:17 10° ENE night (unlit)
02 Nov - 02:52:35 10° W 02:57:02 45° NNW 03:01:30 10° NE visible
02 Nov - 04:35:47 10° WNW 04:39:57 32° N 04:44:08 10° ENE visible
02 Nov - 06:18:13 10° WNW 06:22:46 57° NNE 06:27:20 10° ESE daylight
02 Nov - 08:00:36 10° WNW 08:04:51 37° SW 08:09:06 10° SSE daylight
02 Nov - 23:55:09 10° S 23:58:52 24° SE 00:02:36 10° E night (unlit)
03 Nov - 01:36:03 10° WSW 01:40:43 77° NNW 01:45:21 10° ENE night (unlit)
03 Nov - 03:19:08 10° WNW 03:23:23 34° N 03:27:37 10° ENE visible
03 Nov - 05:02:01 10° WNW 05:06:21 38° NNE 05:10:40 10° E visible
03 Nov - 06:44:14 10° WNW 06:48:52 82° SSW 06:53:29 10° SE daylight
03 Nov - 08:27:33 10° W 08:30:31 17° SW 08:33:28 10° S daylight
04 Nov - 00:20:06 10° SW 00:24:38 51° SE 00:29:08 10° ENE night (unlit)
04 Nov - 02:02:23 10° W 02:06:53 47° NNW 02:11:22 10° NE visible
04 Nov - 03:45:36 10° WNW 03:49:47 32° N 03:53:57 10° ENE visible
04 Nov - 05:28:05 10° WNW 05:32:38 54° NNE 05:37:10 10° E visible
04 Nov - 07:10:26 10° WNW 07:14:45 40° SW 07:19:04 10° SSE daylight
04 Nov - 23:05:11 10° S 23:08:47 22° SE 23:12:22 10° E night (unlit)
05 Nov - 00:45:54 10° WSW 00:50:35 82° NNW 00:55:14 10° ENE night (unlit)
05 Nov - 02:28:56 10° WNW 02:33:13 35° N 02:37:28 10° ENE visible
05 Nov - 04:11:52 10° WNW 04:16:11 37° NNE 04:20:29 10° E visible
05 Nov - 05:54:06 10° WNW 05:58:44 88° SW 06:03:21 10° ESE visible
05 Nov - 07:37:15 10° W 07:40:25 18° SW 07:43:36 10° S daylight
05 Nov - 23:30:01 10° SW 23:34:31 47° SE 23:38:59 10° ENE night (unlit)
06 Nov - 01:12:11 10° W 01:16:44 49° NNW 01:21:15 10° NE night (unlit)
06 Nov - 02:55:26 10° WNW 02:59:37 32° N 03:03:47 10° ENE visible
06 Nov - 04:37:57 10° NW 04:42:29 51° NNE 04:46:59 10° E visible
06 Nov - 06:20:16 10° WNW 06:24:39 43° SW 06:29:01 10° SSE daylight
06 Nov - 22:15:14 10° S 22:18:41 20° SE 22:22:08 10° E night (unlit)
06 Nov - 23:55:45 10° WSW 00:00:27 87° NNW 00:05:07 10° ENE night (unlit)
07 Nov - 01:38:43 10° WNW 01:43:03 36° N 01:47:20 10° ENE night (unlit)
07 Nov - 03:21:43 10° WNW 03:26:01 36° N 03:30:17 10° ENE visible
07 Nov - 05:03:58 10° WNW 05:08:37 87° NE 05:13:14 10° ESE visible
07 Nov - 06:46:59 10° W 06:50:20 20° SW 06:53:42 10° S daylight
07 Nov - 22:39:57 10° SSW 22:44:24 44° SE 22:48:50 10° ENE night (unlit)
08 Nov - 00:22:00 10° W 00:26:34 52° NNW 00:31:07 10° NE night (unlit)
08 Nov - 02:05:14 10° WNW 02:09:27 32° N 02:13:37 10° ENE night (unlit)
08 Nov - 03:47:49 10° NW 03:52:19 49° NNE 03:56:49 10° E visible
08 Nov - 05:30:06 10° WNW 05:34:32 47° SW 05:38:57 10° SE visible
08 Nov - 21:25:19 10° S 21:28:36 19° SE 21:31:52 10° E night (unlit)
08 Nov - 23:05:36 10° WSW 23:10:19 88° SSE 23:15:00 10° ENE night (unlit)
